Content
SEND FEEDBACK

Daily
Averages
Monthly
Summary
United States of America

LAGO CARITE, PUERTO RICO


Home > North America > United States > Puerto Rico
Elevation: 96 feet     Latitude: 18 03N     Longitude: 066 06W

WEATHER
 
SELECT A DAY
Number of Records: 168,979;   Date Range: 7/1/96 - 7/23/14
 
SHARE

PRINT THIS DATA

[ ← Previous Day ]
WEATHER ALMANAC - FEBRUARY 13, 2013
[ Next Day → ]
[ °C ]   °F
Weather ElementAverageHighLow
Temperature76.5 °F82.9 °F (12:56 pm)71.1 °F (3:56 am)
Dewpoint64.6 °F66.9 °F (11:56 pm)62.1 °F (10:56 am)
Humidity67.4 %81 % (3:56 am)51 % (12:56 pm)
Barometer30.05 in30.11 in (10:56 am)30.01 in (2:56 pm)
Wind Speed7.2 mph17.3 mph (12:56 pm)
Wind Gust21.9 mph (11:56 am)
Weather ElementAverage
Visibility10 mi
Wind DirectionENE (54.8 °)

Weather ElementTotal
Precipitation---
Cooling Degree Days12 (Base 65)
Growing Degree Days27 (Base 50)
Averaged from 23 records on February 13, 2013
WEATHER CONDITIONS BREAKOUT
WIND DIRECTION BREAKOUT
WEATHER BY HOUR - FEBRUARY 13, 2013
[ °C ]   °F
Local TimeTemperatureDewpointHumidityBarometerVisibilityWind DirectionWind SpeedGust SpeedPrecipitationEventsConditions
1:56 AM73.0 °F64.0 °F73 %30.06 in10.0 miCalmScattered Clouds
2:56 AM72.0 °F64.9 °F78 %30.05 in10.0 miCalmPartly Cloudy
3:56 AM71.1 °F64.9 °F81 %30.04 in10.0 miCalmPartly Cloudy
4:56 AM71.1 °F64.9 °F81 %30.03 in10.0 miCalmScattered Clouds
5:56 AM71.1 °F64.0 °F78 %30.04 in10.0 miCalmScattered Clouds
6:56 AM71.1 °F64.0 °F78 %30.05 in10.0 miCalmScattered Clouds
7:56 AM73.0 °F63.0 °F71 %30.07 in10.0 miCalmPartly Cloudy
8:56 AM77.0 °F64.0 °F64 %30.09 in10.0 miEast (100°)4.6 mphPartly Cloudy
9:56 AM79.0 °F63.0 °F58 %30.10 in10.0 miEast (80°)8.1 mphPartly Cloudy
10:56 AM81.0 °F62.1 °F52 %30.11 in10.0 miENE (70°)13.8 mph18.4 mphPartly Cloudy
11:56 AM82.0 °F63.0 °F52 %30.08 in10.0 miENE (60°)15.0 mph21.9 mphPartly Cloudy
12:56 PM82.9 °F63.0 °F51 %30.06 in10.0 miENE (70°)17.3 mphPartly Cloudy
1:56 PM82.0 °F64.9 °F56 %30.04 in10.0 miENE (60°)12.7 mph19.6 mphPartly Cloudy
2:56 PM82.0 °F64.9 °F56 %30.01 in10.0 miENE (70°)16.1 mph20.7 mphPartly Cloudy
3:56 PM81.0 °F66.0 °F60 %30.01 in10.0 miEast (80°)15.0 mph21.9 mphPartly Cloudy
4:56 PM80.1 °F66.0 °F62 %30.01 in10.0 miEast (80°)16.1 mphPartly Cloudy
5:56 PM78.1 °F66.0 °F66 %30.01 in10.0 miEast (80°)12.7 mphPartly Cloudy
6:56 PM75.9 °F66.0 °F71 %30.03 in10.0 miEast (80°)13.8 mphPartly Cloudy
7:56 PM75.0 °F66.0 °F73 %30.05 in10.0 miEast (80°)9.2 mphPartly Cloudy
8:56 PM75.0 °F64.9 °F71 %30.06 in10.0 miESE (120°)3.5 mphClear
9:56 PM75.0 °F64.9 °F71 %30.08 in10.0 miESE (110°)4.6 mphPartly Cloudy
10:56 PM75.0 °F64.9 °F71 %30.08 in10.0 miCalmScattered Clouds
11:56 PM75.0 °F66.9 °F76 %30.08 in10.0 miESE (120°)3.5 mph0.00 inMostly Cloudy
Hourly data recorded from TJSJ, located miles away from Lago Carite, Puerto Rico







STORIES FROM OUR PARTNERS